When you browse on this site, cookies collect data to enhance your experience and personalize the content and advertising you see.
Visit our Privacy Policy to learn more. By continuing to use the site, you agree to this use of cookies and data.
  • Em Portugal
  • Lista de países
  • Para 7 dias
  • Temperatura da água
  • Mapas de satélite
  • Mapa do tempo
  • Widgets de tempo
  • user-avatar
    Iniciar Sessão

    Previsão horária em Abomey

    Hoje, 17 Dezembro, Segunda-feira

    Tempo Temperatura Precipitação Vento Pressão Humidade
    00:00 +28°C° 0 mm 2 m/s 740 mmHg 76%
    01:00 +27°C° 0 mm 2 m/s 740 mmHg 78%
    02:00 +27°C° 0 mm 1 m/s 740 mmHg 80%
    03:00 +27°C° 0 mm 1 m/s 739 mmHg 81%
    04:00 +26°C° 0 mm 1 m/s 739 mmHg 83%
    05:00 +26°C° 0 mm 1 m/s 739 mmHg 85%
    06:00 +26°C° 0 mm 1 m/s 740 mmHg 86%
    07:00 +28°C° 0 mm 1 m/s 740 mmHg 77%
    08:00 +30°C° 0 mm 1 m/s 740 mmHg 67%
    09:00 +32°C° 0 mm 1 m/s 741 mmHg 58%
    10:00 +34°C° 0 mm 1 m/s 740 mmHg 49%
    11:00 +37°C° 0 mm 1 m/s 740 mmHg 39%
    12:00 +39°C° 0 mm 1 m/s 740 mmHg 32%
    13:00 +39°C° 0 mm 1 m/s 739 mmHg 30%
    14:00 +39°C° 0 mm 2 m/s 739 mmHg 28%
    15:00 +39°C° 0 mm 2 m/s 738 mmHg 26%
    16:00 +38°C° 0 mm 2 m/s 738 mmHg 30%
    17:00 +36°C° 0 mm 2 m/s 738 mmHg 35%
    18:00 +35°C° 0 mm 2 m/s 738 mmHg 39%
    19:00 +34°C° 0 mm 3 m/s 739 mmHg 49%
    20:00 +31°C° 0 mm 3 m/s 739 mmHg 58%
    21:00 +30°C° 0 mm 3 m/s 740 mmHg 67%
    22:00 +29°C° 0 mm 3 m/s 740 mmHg 70%
    23:00 +29°C° 0 mm 3 m/s 740 mmHg 74%

    Amanhã, 18 Dezembro, Terça-feira

    Tempo Temperatura Precipitação Vento Pressão Humidade
    00:00 +28°C° 0 mm 2 m/s 740 mmHg 77%
    01:00 +28°C° 0 mm 2 m/s 739 mmHg 78%
    02:00 +28°C° 0 mm 1 m/s 739 mmHg 80%
    03:00 +25°C° 0 mm 0 m/s 739 mmHg 82%
    04:00 +27°C° 0 mm 1 m/s 739 mmHg 84%
    05:00 +27°C° 0 mm 1 m/s 739 mmHg 85%
    06:00 +26°C° 0 mm 1 m/s 739 mmHg 87%
    07:00 +28°C° 0 mm 1 m/s 740 mmHg 77%
    08:00 +31°C° 0 mm 1 m/s 740 mmHg 67%
    09:00 +31°C° 0 mm 0 m/s 741 mmHg 57%
    10:00 +35°C° 0 mm 1 m/s 741 mmHg 49%
    11:00 +36°C° 0 mm 1 m/s 740 mmHg 41%
    12:00 +39°C° 0 mm 1 m/s 740 mmHg 33%
    13:00 +39°C° 0 mm 1 m/s 739 mmHg 32%
    14:00 +39°C° 0 mm 2 m/s 739 mmHg 30%
    15:00 +39°C° 0 mm 2 m/s 738 mmHg 29%
    16:00 +37°C° 0 mm 2 m/s 738 mmHg 35%
    17:00 +36°C° 0 mm 3 m/s 738 mmHg 40%
    18:00 +35°C° 0 mm 3 m/s 738 mmHg 46%
    19:00 +33°C° 0 mm 3 m/s 739 mmHg 54%
    20:00 +31°C° 0 mm 3 m/s 739 mmHg 62%
    21:00 +29°C° 0 mm 3 m/s 740 mmHg 71%
    22:00 +29°C° 0 mm 3 m/s 740 mmHg 73%
    23:00 +28°C° 0 mm 3 m/s 740 mmHg 74%

    Depois de amanhã, 19 Dezembro, Quarta-feira

    Tempo Temperatura Precipitação Vento Pressão Humidade
    00:00 +28°C° 0 mm 3 m/s 740 mmHg 76%
    01:00 +28°C° 0 mm 2 m/s 740 mmHg 78%
    02:00 +27°C° 0 mm 2 m/s 739 mmHg 81%
    03:00 +27°C° 0 mm 1 m/s 739 mmHg 83%
    04:00 +27°C° 0 mm 1 m/s 739 mmHg 85%
    05:00 +26°C° 0 mm 1 m/s 739 mmHg 86%
    06:00 +26°C° 0 mm 1 m/s 740 mmHg 87%
    07:00 +28°C° 0 mm 1 m/s 740 mmHg 78%
    08:00 +30°C° 0 mm 2 m/s 741 mmHg 69%
    09:00 +31°C° 0 mm 2 m/s 741 mmHg 59%
    10:00 +34°C° 0 mm 1 m/s 741 mmHg 49%
    11:00 +37°C° 0 mm 1 m/s 741 mmHg 40%
    12:00 +38°C° 0 mm 0 m/s 740 mmHg 30%
    13:00 +37°C° 0 mm 0 m/s 739 mmHg 28%
    14:00 +37°C° 0 mm 0 m/s 739 mmHg 27%
    15:00 +39°C° 0 mm 1 m/s 738 mmHg 26%
    16:00 +37°C° 0 mm 1 m/s 738 mmHg 30%
    17:00 +36°C° 0 mm 2 m/s 738 mmHg 35%
    18:00 +35°C° 0 mm 2 m/s 738 mmHg 39%
    19:00 +33°C° 0 mm 3 m/s 739 mmHg 49%
    20:00 +31°C° 0 mm 3 m/s 739 mmHg 59%
    21:00 +30°C° 0 mm 3 m/s 740 mmHg 68%
    22:00 +29°C° 0 mm 3 m/s 740 mmHg 71%
    23:00 +29°C° 0 mm 3 m/s 740 mmHg 75%

    20 Dezembro, Quinta-feira

    Tempo Temperatura Precipitação Vento Pressão Humidade
    00:00 +28°C° 0 mm 3 m/s 739 mmHg 78%
    01:00 +28°C° 0 mm 2 m/s 739 mmHg 79%
    02:00 +27°C° 0 mm 2 m/s 739 mmHg 81%
    03:00 +27°C° 0 mm 2 m/s 738 mmHg 83%
    04:00 +27°C° 0 mm 1 m/s 739 mmHg 84%
    05:00 +27°C° 0 mm 1 m/s 739 mmHg 86%
    06:00 +26°C° 0 mm 1 m/s 739 mmHg 88%
    07:00 +28°C° 0 mm 1 m/s 740 mmHg 79%
    08:00 +30°C° 0 mm 2 m/s 740 mmHg 70%
    09:00 +31°C° 0 mm 2 m/s 741 mmHg 61%
    10:00 +34°C° 0 mm 1 m/s 741 mmHg 51%
    11:00 +37°C° 0 mm 1 m/s 740 mmHg 41%
    12:00 +37°C° 0 mm 0 m/s 740 mmHg 31%
    13:00 +37°C° 0.1 mm 0 m/s 739 mmHg 29%
    14:00 +40°C° 0.1 mm 1 m/s 738 mmHg 27%
    15:00 +39°C° 0.1 mm 1 m/s 737 mmHg 26%
    16:00 +37°C° 0 mm 1 m/s 737 mmHg 30%
    17:00 +36°C° 0 mm 2 m/s 738 mmHg 34%
    18:00 +35°C° 0 mm 2 m/s 738 mmHg 38%
    19:00 +33°C° 0 mm 3 m/s 738 mmHg 48%
    20:00 +31°C° 0 mm 3 m/s 739 mmHg 59%
    21:00 +29°C° 0 mm 3 m/s 739 mmHg 69%
    22:00 +29°C° 0 mm 3 m/s 739 mmHg 72%
    23:00 +28°C° 0 mm 3 m/s 739 mmHg 76%

    21 Dezembro, Sexta-feira

    Tempo Temperatura Precipitação Vento Pressão Humidade
    00:00 +28°C° 0 mm 2 m/s 739 mmHg 79%
    01:00 +28°C° 0 mm 2 m/s 739 mmHg 80%
    02:00 +27°C° 0 mm 2 m/s 738 mmHg 82%
    03:00 +27°C° 0 mm 1 m/s 738 mmHg 83%
    04:00 +27°C° 0 mm 1 m/s 739 mmHg 85%
    05:00 +26°C° 0 mm 1 m/s 739 mmHg 86%
    06:00 +26°C° 0 mm 1 m/s 739 mmHg 88%
    07:00 +28°C° 0 mm 1 m/s 740 mmHg 79%
    08:00 +30°C° 0 mm 1 m/s 740 mmHg 70%
    09:00 +31°C° 0 mm 2 m/s 741 mmHg 62%
    10:00 +34°C° 0 mm 1 m/s 740 mmHg 51%
    11:00 +37°C° 0 mm 1 m/s 740 mmHg 41%
    12:00 +37°C° 0 mm 0 m/s 739 mmHg 30%
    13:00 +37°C° 0 mm 0 m/s 738 mmHg 28%
    14:00 +40°C° 0 mm 1 m/s 738 mmHg 26%
    15:00 +40°C° 0 mm 1 m/s 737 mmHg 25%
    16:00 +38°C° 0 mm 2 m/s 737 mmHg 31%
    17:00 +36°C° 0 mm 2 m/s 737 mmHg 37%
    18:00 +34°C° 0 mm 3 m/s 737 mmHg 43%
    19:00 +33°C° 0 mm 3 m/s 738 mmHg 52%
    20:00 +31°C° 0 mm 3 m/s 738 mmHg 61%
    21:00 +29°C° 0 mm 3 m/s 739 mmHg 70%
    22:00 +29°C° 0 mm 3 m/s 739 mmHg 73%
    23:00 +28°C° 0 mm 3 m/s 739 mmHg 76%

    22 Dezembro, Sábado

    Tempo Temperatura Precipitação Vento Pressão Humidade
    00:00 +28°C° 0 mm 2 m/s 738 mmHg 78%
    01:00 +27°C° 0.2 mm 2 m/s 738 mmHg 80%
    02:00 +27°C° 0.2 mm 2 m/s 738 mmHg 82%
    03:00 +27°C° 0.2 mm 1 m/s 738 mmHg 84%
    04:00 +27°C° 0 mm 1 m/s 738 mmHg 86%
    05:00 +26°C° 0 mm 1 m/s 738 mmHg 87%
    06:00 +26°C° 0 mm 1 m/s 739 mmHg 88%
    07:00 +28°C° 0 mm 1 m/s 739 mmHg 80%
    08:00 +29°C° 0 mm 1 m/s 740 mmHg 71%
    09:00 +31°C° 0 mm 2 m/s 740 mmHg 63%
    10:00 +33°C° 0 mm 1 m/s 740 mmHg 53%
    11:00 +36°C° 0 mm 1 m/s 739 mmHg 43%
    12:00 +37°C° 0 mm 0 m/s 739 mmHg 33%
    13:00 +39°C° 0 mm 1 m/s 738 mmHg 33%
    14:00 +37°C° 0 mm 1 m/s 737 mmHg 32%
    15:00 +37°C° 0 mm 2 m/s 736 mmHg 32%
    16:00 +36°C° 0 mm 2 m/s 737 mmHg 36%
    17:00 +35°C° 0 mm 2 m/s 737 mmHg 40%
    18:00 +34°C° 0 mm 2 m/s 737 mmHg 44%
    19:00 +33°C° 0 mm 3 m/s 737 mmHg 52%
    20:00 +30°C° 0 mm 3 m/s 738 mmHg 60%
    21:00 +29°C° 0 mm 4 m/s 738 mmHg 68%
    22:00 +29°C° 0 mm 3 m/s 738 mmHg 69%
    23:00 +28°C° 0 mm 3 m/s 738 mmHg 71%
    Mostrar mais